Regional Weather Roundup
Issued by NWS

Home | Current Version | Previous Version | Text Only | Print | Product List | Glossary On
Versions: 1 2 3 4 5 6 7 8 9 10 11 12 13 14 15 16 17 18 19 20 21 22 23 24 25 26 27 28 29 30 31 32 33 34 35 36 37 38 39 40 41 42 43 44 45 46 47 48 49 50
566
ASUS43 KTOP 071308
RWRKS

WEATHER ROUNDUP FOR KANSAS
NATIONAL WEATHER SERVICE GOODLAND KS
700 AM CST WED DEC 07 2016

NOTE:  "FAIR" INDICATES FEW OR NO CLOUDS BELOW 12,000 FEET WITH NO
SIGNIFICANT WEATHER AND/OR OBSTRUCTIONS TO VISIBILITY.

KSZ001>006-013>018-027>032-041>047-071400-
NORTHWEST KANSAS

CITY           SKY/WX    TMP DP  RH WIND       PRES   REMARKS
GOODLAND       LGT SNOW  16  13  88 E9        30.11R FOG
HAYS           MOCLDY    22  12  65 NE13      30.19R WCI  10
HILL CITY      CLOUDY    18  11  74 NE14      30.21R WCI   4
RUSSELL        CLOUDY    21  12  68 NE14      30.18R WCI   8
$$

KSZ061>065-074>080-084>089-071400-
SOUTHWEST KANSAS

CITY           SKY/WX    TMP DP  RH WIND       PRES   REMARKS
DODGE CITY     CLOUDY    28  18  66 E6        30.10R
ELKHART          N/A     19   7  60 SE10        N/A  WCI   7
GARDEN CITY    CLOUDY    27  15  61 E9        30.07R
GREAT BEND     CLOUDY    28  16  60 NE14      30.16R WCI  17
LIBERAL        CLOUDY    27  16  63 E9        30.03R
PRATT          CLOUDY    28  18  65 E6        30.13R
$$

KSZ066>073-081>083-090>101-071400-
SOUTHEAST KANSAS

CITY           SKY/WX    TMP DP  RH WIND       PRES   REMARKS
CHANUTE        CLOUDY    33  17  51 E6        30.19R
COFFEYVILLE    CLOUDY    33  21  61 E7        30.19R
HUTCHINSON     CLOUDY    32  18  56 N8        30.18R
MEDICINE LODGE   N/A     32  16  51 E7        30.13R
NEWTON         CLOUDY    29  20  69 NE5       30.19R
PARSONS        CLOUDY    34  19  54 MISG      30.19R
WICHITA INTL   CLOUDY    34  15  46 E9        30.17R
WICHITA JABRA  CLOUDY    32  18  56 E6        30.17R
WICHITA MCCONL CLOUDY    33  16  49 NE7       30.16R
WINFIELD       CLOUDY    34  16  47 E9        30.15S
$$

KSZ007>012-019>026-033>040-048>060-102>105-071400-
NORTHEAST KANSAS

CITY           SKY/WX    TMP DP  RH WIND       PRES   REMARKS
CONCORDIA      CLOUDY    22  10  60 N15G22    30.25R WCI   9
EMPORIA        CLOUDY    28  18  66 N3        30.19R
LAWRENCE       CLOUDY    29  15  56 N5        30.21R
MANHATTAN      CLOUDY    28  13  53 NE12      30.23R WCI  18
MARYSVILLE     CLOUDY    25  12  58 N13       30.23R WCI  13
OLATHE IND     CLOUDY    29  13  51 NE3       30.19R
OLATHE EXE     CLOUDY    30  11  45 N6        30.18R
SALINA         CLOUDY    28  15  58 N12       30.25R WCI  18
TOPEKA BILLARD CLOUDY    29  15  56 N7        30.22R
TOPEKA FORBES  CLOUDY    30  14  51 MISG      30.21R
$$




USA.gov is the U.S. government's official web portal to all federal, state and local government web resources and services.